Pagina principale
METAR-TAF:

METAR-TAF

Aeroporti :

Trevico, Italia

latitudine: 41-03N, longitudine: 015-14E, altezza: 1085 m

Osservazione

Il bollettino è stato emesso 1 ora e 16 minuti fa, alle 19:55 UTC
Vento 8 kt da est/sud-est
Temperature -1°C
Umidità 93%
Pressione 1016 hPa
Visibilità 10 km o più
Nubi sparse ad un'altezza di 1200 ft

METAR: LIRT 121955Z 12008KT 9999 SCT012 M01/M02 Q1016 RMK SCT MON INVIS VAL INVIS VIS MIN 9999

Ora: 22:11 (21:11 UTC)


TAF: mancante

Osservazioni e previsioni meteorologiche di più di 4000 aeroporti (messaggi METAR e TAF).

Le stazioni disponibili sono rappresentate dai dischi gialli e rossi sulla carta.

Puntare il mouse per vedere il nome della stazione.

Clicca sopra per visualizzare le osservazioni e previsioni meteorologiche.

Per cambiare la mappa : fare clic sui pulsanti verdi con una croce nera per ingrandire, il pulsante verde con un trattino per diminuire, o sulla freccia verde per le mappe adiacenti.


METAR-TAF: